Time,TemperatureF,DewpointF,PressureIn,WindDirection,WindDirectionDegrees,WindSpeedMPH,WindSpeedGustMPH,Humidity,HourlyPrecipIn,Conditions,Clouds,dailyrainin,SoftwareType,DateUTC
2013-03-26 00:03:00,32.0,29.0,29.56,ESE,123,0.0,1.0,88,0.00,,,0.00,,2013-03-26 04:03:00,
2013-03-26 00:12:00,32.0,29.0,29.56,ESE,123,0.0,1.0,88,0.00,,,0.00,,2013-03-26 04:12:00,
2013-03-26 00:23:00,32.0,29.0,29.56,ESE,121,0.0,1.0,87,0.00,,,0.00,,2013-03-26 04:23:00,
2013-03-26 00:33:00,33.0,28.0,29.56,South,173,327.0,327.0,83,-99.99,,,-99.99,,2013-03-26 04:33:00,
2013-03-26 00:43:00,33.0,28.0,29.56,South,173,327.0,327.0,83,-99.99,,,-99.99,,2013-03-26 04:43:00,
2013-03-26 00:53:00,34.0,28.0,29.57,East,84,1.0,5.0,80,0.00,,,0.00,,2013-03-26 04:53:00,
2013-03-26 01:02:00,33.0,28.0,29.57,WNW,298,0.0,1.0,83,0.00,,,0.00,,2013-03-26 05:02:00,
2013-03-26 01:12:00,33.0,28.0,29.57,WNW,298,0.0,1.0,83,0.00,,,0.00,,2013-03-26 05:12:00,
2013-03-26 01:22:00,33.0,29.0,29.57,WNW,298,0.0,1.0,84,0.00,,,0.00,,2013-03-26 05:22:00,
2013-03-26 01:32:00,33.0,28.0,29.57,SSW,213,0.0,6.0,82,0.00,,,0.00,,2013-03-26 05:32:00,
2013-03-26 01:42:00,33.0,28.0,29.57,SSW,213,0.0,6.0,82,0.00,,,0.00,,2013-03-26 05:42:00,
2013-03-26 01:52:00,33.0,28.0,29.56,SSW,213,0.0,0.0,83,0.00,,,0.00,,2013-03-26 05:52:00,
2013-03-26 02:02:00,33.0,29.0,29.56,SSW,213,0.0,1.0,84,0.00,,,0.00,,2013-03-26 06:02:00,
2013-03-26 02:12:00,33.0,29.0,29.56,SSW,213,0.0,1.0,84,0.00,,,0.00,,2013-03-26 06:12:00,
2013-03-26 02:22:00,33.0,29.0,29.56,NNW,341,0.0,1.0,84,0.00,,,0.00,,2013-03-26 06:22:00,
2013-03-26 02:32:00,32.0,28.0,29.56,NNW,341,0.0,0.0,84,0.00,,,0.00,,2013-03-26 06:32:00,
2013-03-26 02:42:00,32.0,28.0,29.56,NNW,341,0.0,0.0,84,0.00,,,0.00,,2013-03-26 06:42:00,
2013-03-26 02:52:00,32.0,28.0,29.56,NNW,341,0.0,0.0,84,0.00,,,0.00,,2013-03-26 06:52:00,
2013-03-26 03:02:00,33.0,28.0,29.56,NNW,341,0.0,1.0,83,0.00,,,0.00,,2013-03-26 07:02:00,
2013-03-26 03:12:00,33.0,28.0,29.56,NNW,341,0.0,1.0,83,0.00,,,0.00,,2013-03-26 07:12:00,
2013-03-26 03:22:00,33.0,28.0,29.55,WNW,302,327.0,327.0,80,-99.99,,,-99.99,,2013-03-26 07:22:00,
2013-03-26 03:33:00,33.0,27.0,29.55,WNW,294,0.0,1.0,79,0.00,,,0.00,,2013-03-26 07:33:00,
2013-03-26 03:42:00,33.0,27.0,29.55,WNW,294,0.0,1.0,79,0.00,,,0.00,,2013-03-26 07:42:00,
2013-03-26 03:53:00,32.0,26.0,29.55,WNW,294,0.0,0.0,79,0.00,,,0.00,,2013-03-26 07:53:00,
2013-03-26 04:02:00,32.0,26.0,29.55,West,275,1.0,2.0,79,0.00,,,0.00,,2013-03-26 08:02:00,
2013-03-26 04:12:00,32.0,26.0,29.55,West,275,1.0,2.0,79,0.00,,,0.00,,2013-03-26 08:12:00,
2013-03-26 04:22:00,32.0,26.0,29.55,NW,325,327.0,327.0,78,-99.99,,,-99.99,,2013-03-26 08:22:00,
2013-03-26 04:32:00,32.0,26.0,29.55,SSE,150,0.0,3.0,77,0.00,,,0.00,,2013-03-26 08:32:00,
2013-03-26 04:42:00,32.0,26.0,29.55,SSE,150,0.0,3.0,77,0.00,,,0.00,,2013-03-26 08:42:00,
2013-03-26 04:52:00,32.0,26.0,29.55,West,262,0.0,2.0,78,0.00,,,0.00,,2013-03-26 08:52:00,
2013-03-26 05:02:00,31.0,25.0,29.55,WSW,257,0.0,2.0,79,0.00,,,0.00,,2013-03-26 09:02:00,
2013-03-26 05:12:00,31.0,25.0,29.55,WSW,257,0.0,2.0,79,0.00,,,0.00,,2013-03-26 09:12:00,
2013-03-26 05:22:00,30.0,24.0,29.55,WSW,258,0.0,2.0,79,0.00,,,0.00,,2013-03-26 09:22:00,
2013-03-26 05:33:00,29.0,24.0,29.56,West,259,0.0,2.0,80,0.00,,,0.00,,2013-03-26 09:33:00,
2013-03-26 05:43:00,29.0,24.0,29.56,West,259,0.0,2.0,80,0.00,,,0.00,,2013-03-26 09:43:00,
2013-03-26 05:52:00,29.0,25.0,29.56,WSW,256,0.0,3.0,84,0.00,,,0.00,,2013-03-26 09:52:00,
2013-03-26 06:03:00,28.0,24.0,29.56,WSW,256,327.0,327.0,83,-99.99,,,-99.99,,2013-03-26 10:03:00,
2013-03-26 06:12:00,28.0,24.0,29.56,WSW,256,327.0,327.0,83,-99.99,,,-99.99,,2013-03-26 10:12:00,
2013-03-26 06:22:00,28.0,23.0,29.58,South,188,0.0,1.0,82,0.00,,,0.00,,2013-03-26 10:22:00,
2013-03-26 06:32:00,28.0,24.0,29.58,South,188,0.0,3.0,83,0.00,,,0.00,,2013-03-26 10:32:00,
2013-03-26 06:43:00,28.0,24.0,29.58,South,188,0.0,3.0,83,0.00,,,0.00,,2013-03-26 10:43:00,
2013-03-26 06:53:00,27.0,23.0,29.59,South,188,0.0,0.0,84,0.00,,,0.00,,2013-03-26 10:53:00,
2013-03-26 07:03:00,27.0,23.0,29.59,South,188,0.0,0.0,84,0.00,,,0.00,,2013-03-26 11:03:00,
2013-03-26 07:12:00,27.0,23.0,29.59,South,188,0.0,0.0,84,0.00,,,0.00,,2013-03-26 11:12:00,
2013-03-26 07:22:00,27.0,23.0,29.60,South,188,0.0,1.0,85,0.00,,,0.00,,2013-03-26 11:22:00,
2013-03-26 07:32:00,27.0,23.0,29.60,South,188,0.0,0.0,85,0.00,,,0.00,,2013-03-26 11:32:00,
2013-03-26 07:42:00,27.0,23.0,29.60,South,188,0.0,0.0,85,0.00,,,0.00,,2013-03-26 11:42:00,
2013-03-26 07:52:00,27.0,23.0,29.60,South,188,327.0,327.0,84,-99.99,,,-99.99,,2013-03-26 11:52:00,
2013-03-26 08:03:00,27.0,23.0,29.60,South,188,327.0,327.0,84,-99.99,,,-99.99,,2013-03-26 12:03:00,
2013-03-26 08:12:00,27.0,23.0,29.60,SSW,194,0.0,2.0,84,0.00,,,0.00,,2013-03-26 12:12:00,
2013-03-26 08:22:00,30.0,23.0,29.61,WSW,238,0.0,0.0,76,0.00,,,0.00,,2013-03-26 12:22:00,
2013-03-26 08:32:00,33.0,24.0,29.61,SSE,150,0.0,7.0,68,0.00,,,0.00,,2013-03-26 12:32:00,
2013-03-26 08:43:00,33.0,24.0,29.61,SSE,150,0.0,7.0,68,0.00,,,0.00,,2013-03-26 12:43:00,
2013-03-26 08:52:00,33.0,24.0,29.61,SSE,150,0.0,7.0,68,0.00,,,0.00,,2013-03-26 12:52:00,
2013-03-26 09:03:00,35.0,23.0,29.62,South,180,327.0,327.0,62,-99.99,,,-99.99,,2013-03-26 13:03:00,
2013-03-26 09:12:00,35.0,23.0,29.62,South,180,327.0,327.0,62,-99.99,,,-99.99,,2013-03-26 13:12:00,
2013-03-26 09:23:00,35.0,22.0,29.62,WNW,286,1.0,7.0,59,0.00,,,0.00,,2013-03-26 13:23:00,
2013-03-26 09:32:00,35.0,22.0,29.62,ESE,115,327.0,327.0,59,-99.99,,,-99.99,,2013-03-26 13:32:00,
2013-03-26 09:42:00,35.0,22.0,29.62,ESE,115,327.0,327.0,59,-99.99,,,-99.99,,2013-03-26 13:42:00,
2013-03-26 09:52:00,36.0,22.0,29.62,NE,49,327.0,327.0,57,-99.99,,,-99.99,,2013-03-26 13:52:00,
2013-03-26 10:02:00,37.0,22.0,29.63,ESE,107,3.0,5.0,54,0.00,,,0.00,,2013-03-26 14:02:00,
2013-03-26 10:12:00,37.0,22.0,29.63,ESE,107,3.0,5.0,54,0.00,,,0.00,,2013-03-26 14:12:00,
2013-03-26 10:22:00,37.0,22.0,29.63,ESE,107,3.0,5.0,54,0.00,,,0.00,,2013-03-26 14:22:00,
2013-03-26 10:32:00,39.0,23.0,29.62,West,259,327.0,327.0,52,-99.99,,,-99.99,,2013-03-26 14:32:00,
2013-03-26 10:42:00,39.0,23.0,29.62,West,259,327.0,327.0,52,-99.99,,,-99.99,,2013-03-26 14:42:00,
2013-03-26 10:53:00,39.0,22.0,29.62,ENE,71,3.0,6.0,50,0.00,,,0.00,,2013-03-26 14:53:00,
2013-03-26 11:02:00,40.0,22.0,29.63,NE,40,1.0,5.0,49,0.00,,,0.00,,2013-03-26 15:02:00,
2013-03-26 11:12:00,40.0,22.0,29.63,NE,40,1.0,5.0,49,0.00,,,0.00,,2013-03-26 15:12:00,
2013-03-26 11:22:00,41.0,22.0,29.63,ESE,117,1.0,5.0,47,0.00,,,0.00,,2013-03-26 15:22:00,
2013-03-26 11:33:00,42.0,22.0,29.63,NE,37,327.0,327.0,44,-99.99,,,-99.99,,2013-03-26 15:33:00,
2013-03-26 11:43:00,42.0,22.0,29.63,NE,37,327.0,327.0,44,-99.99,,,-99.99,,2013-03-26 15:43:00,
2013-03-26 11:53:00,42.0,22.0,29.63,NE,37,327.0,327.0,44,-99.99,,,-99.99,,2013-03-26 15:53:00,
2013-03-26 12:03:00,42.0,19.0,29.63,ESE,102,3.0,11.0,40,0.00,,,0.00,,2013-03-26 16:03:00,
2013-03-26 12:13:00,42.0,19.0,29.63,ESE,102,3.0,11.0,40,0.00,,,0.00,,2013-03-26 16:13:00,
2013-03-26 12:23:00,43.0,22.0,29.62,East,80,1.0,4.0,42,0.00,,,0.00,,2013-03-26 16:23:00,
2013-03-26 12:32:00,43.0,20.0,29.63,ENE,73,2.0,6.0,39,0.00,,,0.00,,2013-03-26 16:32:00,
2013-03-26 12:42:00,43.0,20.0,29.63,ENE,73,2.0,6.0,39,0.00,,,0.00,,2013-03-26 16:42:00,
2013-03-26 12:54:00,43.0,19.0,29.62,SSE,147,3.0,8.0,37,0.00,,,0.00,,2013-03-26 16:54:00,
2013-03-26 13:02:00,44.0,21.0,29.62,NE,35,1.0,6.0,39,0.00,,,0.00,,2013-03-26 17:02:00,
2013-03-26 13:12:00,44.0,21.0,29.62,NE,35,1.0,6.0,39,0.00,,,0.00,,2013-03-26 17:12:00,
2013-03-26 13:23:00,44.0,21.0,29.62,ENE,72,1.0,5.0,40,0.00,,,0.00,,2013-03-26 17:23:00,
2013-03-26 13:32:00,45.0,19.0,29.62,WNW,288,4.0,7.0,35,0.00,,,0.00,,2013-03-26 17:32:00,
2013-03-26 13:42:00,45.0,19.0,29.62,WNW,288,4.0,7.0,35,0.00,,,0.00,,2013-03-26 17:42:00,
2013-03-26 13:53:00,46.0,20.0,29.62,SW,221,1.0,8.0,35,0.00,,,0.00,,2013-03-26 17:53:00,
2013-03-26 14:02:00,46.0,20.0,29.62,SW,221,1.0,8.0,35,0.00,,,0.00,,2013-03-26 18:02:00,
2013-03-26 14:12:00,46.0,20.0,29.62,SW,221,1.0,8.0,35,0.00,,,0.00,,2013-03-26 18:12:00,
2013-03-26 14:23:00,47.0,21.0,29.61,NW,320,3.0,6.0,35,0.00,,,0.00,,2013-03-26 18:23:00,
2013-03-26 14:34:00,45.0,20.0,29.61,West,265,2.0,5.0,37,0.00,,,0.00,,2013-03-26 18:34:00,
2013-03-26 14:42:00,45.0,20.0,29.61,West,265,2.0,5.0,37,0.00,,,0.00,,2013-03-26 18:42:00,
2013-03-26 14:53:00,45.0,20.0,29.61,West,265,2.0,5.0,37,0.00,,,0.00,,2013-03-26 18:53:00,
2013-03-26 15:03:00,47.0,21.0,29.61,West,261,1.0,6.0,35,0.00,,,0.00,,2013-03-26 19:03:00,
2013-03-26 15:12:00,47.0,21.0,29.61,West,261,1.0,6.0,35,0.00,,,0.00,,2013-03-26 19:12:00,
2013-03-26 15:22:00,45.0,20.0,29.61,NNW,327,1.0,6.0,37,0.00,,,0.00,,2013-03-26 19:22:00,
2013-03-26 15:32:00,48.0,20.0,29.61,WSW,253,3.0,8.0,32,0.00,,,0.00,,2013-03-26 19:32:00,
2013-03-26 15:42:00,48.0,20.0,29.61,WSW,253,3.0,8.0,32,0.00,,,0.00,,2013-03-26 19:42:00,
2013-03-26 15:53:00,48.0,22.0,29.61,NNE,32,1.0,9.0,35,0.00,,,0.00,,2013-03-26 19:53:00,
2013-03-26 16:02:00,47.0,19.0,29.62,NW,304,2.0,9.0,33,0.00,,,0.00,,2013-03-26 20:02:00,
2013-03-26 16:13:00,47.0,19.0,29.62,NW,304,2.0,9.0,33,0.00,,,0.00,,2013-03-26 20:13:00,
2013-03-26 16:22:00,47.0,21.0,29.62,ENE,64,327.0,327.0,35,-99.99,,,-99.99,,2013-03-26 20:22:00,
2013-03-26 16:32:00,47.0,22.0,29.62,ENE,69,1.0,6.0,37,0.00,,,0.00,,2013-03-26 20:32:00,
2013-03-26 16:43:00,47.0,22.0,29.62,ENE,69,1.0,6.0,37,0.00,,,0.00,,2013-03-26 20:43:00,
2013-03-26 16:52:00,47.0,21.0,29.62,ENE,76,2.0,8.0,35,0.00,,,0.00,,2013-03-26 20:52:00,
2013-03-26 17:02:00,48.0,20.0,29.62,West,280,1.0,4.0,33,0.00,,,0.00,,2013-03-26 21:02:00,
2013-03-26 17:12:00,48.0,20.0,29.62,West,280,1.0,4.0,33,0.00,,,0.00,,2013-03-26 21:12:00,
2013-03-26 17:22:00,47.0,21.0,29.62,SSW,207,1.0,4.0,36,0.00,,,0.00,,2013-03-26 21:22:00,
2013-03-26 17:33:00,47.0,21.0,29.62,SSW,207,1.0,4.0,36,0.00,,,0.00,,2013-03-26 21:33:00,
2013-03-26 17:43:00,47.0,21.0,29.62,SSW,207,1.0,4.0,36,0.00,,,0.00,,2013-03-26 21:43:00,
2013-03-26 17:52:00,47.0,21.0,29.62,SSW,207,1.0,4.0,36,0.00,,,0.00,,2013-03-26 21:52:00,
2013-03-26 18:23:00,44.0,22.0,29.65,West,270,0.0,5.0,42,0.00,,,0.00,,2013-03-26 22:23:00,
2013-03-26 18:33:00,44.0,22.0,29.65,West,270,0.0,5.0,42,0.00,,,0.00,,2013-03-26 22:33:00,
2013-03-26 18:42:00,44.0,22.0,29.65,West,270,0.0,5.0,42,0.00,,,0.00,,2013-03-26 22:42:00,
2013-03-26 18:52:00,44.0,22.0,29.65,West,270,0.0,5.0,42,0.00,,,0.00,,2013-03-26 22:52:00,
2013-03-26 19:22:00,40.0,22.0,29.67,West,281,1.0,6.0,48,0.00,,,0.00,,2013-03-26 23:22:00,
2013-03-26 19:32:00,39.0,22.0,29.68,NNE,29,0.0,1.0,51,0.00,,,0.00,,2013-03-26 23:32:00,
2013-03-26 19:43:00,39.0,22.0,29.68,NNE,29,0.0,1.0,51,0.00,,,0.00,,2013-03-26 23:43:00,
2013-03-26 19:53:00,37.0,24.0,29.69,NNE,29,0.0,0.0,59,0.00,,,0.00,,2013-03-26 23:53:00,
2013-03-26 20:02:00,35.0,23.0,29.70,NNE,29,0.0,0.0,62,0.00,,,0.00,,2013-03-27 00:02:00,
2013-03-26 20:12:00,35.0,23.0,29.70,NNE,29,0.0,0.0,62,0.00,,,0.00,,2013-03-27 00:12:00,
2013-03-26 20:22:00,34.0,22.0,29.70,NNE,29,327.0,327.0,62,-99.99,,,-99.99,,2013-03-27 00:22:00,
2013-03-26 20:32:00,34.0,23.0,29.70,NNE,29,0.0,2.0,64,0.00,,,0.00,,2013-03-27 00:32:00,
2013-03-26 20:42:00,34.0,23.0,29.70,NNE,29,0.0,2.0,64,0.00,,,0.00,,2013-03-27 00:42:00,
2013-03-26 20:52:00,34.0,23.0,29.71,West,275,1.0,3.0,65,0.00,,,0.00,,2013-03-27 00:52:00,
2013-03-26 21:02:00,34.0,24.0,29.71,SW,231,0.0,3.0,67,0.00,,,0.00,,2013-03-27 01:02:00,
2013-03-26 21:12:00,34.0,24.0,29.71,SW,231,0.0,3.0,67,0.00,,,0.00,,2013-03-27 01:12:00,
2013-03-26 21:23:00,33.0,25.0,29.72,WNW,294,0.0,1.0,71,0.00,,,0.00,,2013-03-27 01:23:00,
2013-03-26 21:33:00,32.0,24.0,29.72,WNW,293,0.0,2.0,71,0.00,,,0.00,,2013-03-27 01:33:00,
2013-03-26 21:42:00,32.0,24.0,29.72,WNW,293,0.0,2.0,71,0.00,,,0.00,,2013-03-27 01:42:00,
2013-03-26 21:53:00,31.0,23.0,29.72,WNW,293,0.0,1.0,72,0.00,,,0.00,,2013-03-27 01:53:00,
2013-03-26 22:03:00,31.0,24.0,29.72,WNW,292,0.0,0.0,75,0.00,,,0.00,,2013-03-27 02:03:00,
2013-03-26 22:12:00,31.0,24.0,29.72,WNW,292,0.0,0.0,75,0.00,,,0.00,,2013-03-27 02:12:00,
2013-03-26 22:22:00,31.0,24.0,29.72,WNW,292,0.0,0.0,76,0.00,,,0.00,,2013-03-27 02:22:00,
2013-03-26 22:32:00,29.0,22.0,29.72,WNW,292,0.0,0.0,75,0.00,,,0.00,,2013-03-27 02:32:00,
2013-03-26 22:42:00,29.0,22.0,29.72,WNW,292,0.0,0.0,75,0.00,,,0.00,,2013-03-27 02:42:00,
2013-03-26 22:52:00,29.0,23.0,29.72,WNW,292,0.0,0.0,79,0.00,,,0.00,,2013-03-27 02:52:00,
2013-03-26 23:02:00,28.0,23.0,29.72,WNW,292,0.0,0.0,82,0.00,,,0.00,,2013-03-27 03:02:00,
2013-03-26 23:12:00,28.0,23.0,29.72,WNW,292,0.0,0.0,82,0.00,,,0.00,,2013-03-27 03:12:00,
2013-03-26 23:22:00,28.0,23.0,29.72,WNW,292,0.0,0.0,82,0.00,,,0.00,,2013-03-27 03:22:00,
2013-03-26 23:33:00,27.0,23.0,29.72,WNW,292,0.0,1.0,83,0.00,,,0.00,,2013-03-27 03:33:00,
2013-03-26 23:42:00,27.0,23.0,29.72,WNW,292,0.0,1.0,83,0.00,,,0.00,,2013-03-27 03:42:00,
2013-03-26 23:52:00,27.0,23.0,29.72,WNW,292,0.0,0.0,83,0.00,,,0.00,,2013-03-27 03:52:00,